sat.trackr.live / text

‹ back to catalog

STARLINK-2104

NORAD 47384 · 2021-005AM

PAYLOAD ACTIVE UNKNOWN

§ Identity

Operator
Country
US
Launch date
2021-01-20
Launch site
AFETR
Launch vehicle
Mass (kg)
RCS (m²)

Purposes: comms

External: N2YO · Heavens-Above · Gunter

§ Orbital elements

Epoch: 2026-09-20T03:41:38.721696Z

Period
94.01 min
Inclination
53.1589°
Eccentricity
0.0001321
Mean motion
15.31710862 rev/d
Perigee alt
469.8 km
Apogee alt
471.6 km
Semi-major
6,848.8 km
B*
4.2779e-5
RAAN
212.4286°
Arg perigee
86.0598°
Mean anomaly
274.0555°
Rev number
31,317

§ Raw data

STARLINK-21041 47384U 21005AM  26263.15392039  .00000963  00000+0  42779-4 0  99952 47384  53.1589 212.4286 0001321  86.0598 274.0555 15.31710862313174

JSON: /api/v1/satellites/47384 · /tle

For live sub-satellite position, see the globe view (requires WebGL).

§ Visibility from observer

Set your observer location to see the next 7 days of passes ≥ 10°. The values pass through the URL so the page stays shareable.

No JS? Fill the form by hand. The geolocation button needs JavaScript.